Flag for Singapore Weather past 2 weeks in Singapore, Singapore

Now
82 °F

Passing clouds.


Feels Like: 88 °F
Forecast: 80 / 87 °F
Wind: 5 mph from South

Location: Changi Airport

Current Time: Jul 4, 2015 at 4:18:05 AM

Latest Report: Jul 4, 2015 at 4:00 AM


Visibility: N/A

Pressure: 29.83 "Hg

Humidity: 74%

Dew point: 73 °F

Location of SingaporeLocation

Historic Weather in Singapore — Graph

°F

Singapore temperature yesterday

Maximum temperature yesterday: 90 °F (at 1:30 PM)
Minimum temperature yesterday: 82 °F (at 2:00 AM)
Average temperature yesterday: 85 °F

Past Weeks' High & Low Weather Summary

 TemperatureHumidityPressure
High91 °F (Jun 22, 1:30 PM)94% (Jul 1, 12:00 PM)29.98 "Hg (Jul 1, 12:00 PM)
Low75 °F (Jul 1, 12:00 PM)55% (Jun 27, 5:00 PM)29.77 "Hg (Jun 19, 4:00 AM)
Average85 °F74%29.86 "Hg
* Reported Jun 19 3:00 AM — Jul 4 3:00 AM, Singapore, Weather by CustomWeather, © 2015

Note: Actual official high and low records may vary slightly from our data, if they occured in-between our weather recording intervals... More about our weather records

Advertising

Singapore weather history for previous 24 hours

 ConditionsComfort  
Time TempWeatherWind HumidityBarometerVisibility
3:00 AM
Sat, Jul 4
82 °FPassing clouds.7 mph74%29.83 "HgN/A
2:30 AM82 °FPassing clouds.6 mph74%29.83 "HgN/A
2:00 AM84 °FPartly cloudy.9 mph70%29.83 "HgN/A
1:30 AM84 °FPassing clouds.9 mph70%29.83 "HgN/A
1:00 AM84 °FPassing clouds.8 mph70%29.86 "HgN/A
12:30 AM84 °FPassing clouds.10 mph74%29.86 "HgN/A
12:00 AM84 °FPassing clouds.9 mph70%29.86 "HgN/A
11:30 PM
Fri, Jul 3
84 °FPassing clouds.7 mph70%29.86 "HgN/A
11:00 PM84 °FPassing clouds.5 mph70%29.86 "HgN/A
10:30 PM84 °FPassing clouds.7 mph74%29.86 "HgN/A
10:00 PM84 °FPassing clouds.9 mph74%29.83 "HgN/A
9:30 PM84 °FPassing clouds.8 mph74%29.83 "Hg6 mi
9:00 PM84 °FPassing clouds.9 mph74%29.83 "Hg6 mi
8:30 PM84 °FPassing clouds.8 mph74%29.80 "Hg6 mi
8:00 PM84 °FPassing clouds.9 mph74%29.80 "HgN/A
7:30 PM84 °FPartly cloudy.9 mph79%29.80 "Hg6 mi
7:00 PM84 °FPartly sunny.8 mph79%29.80 "Hg6 mi
6:30 PM86 °FPartly sunny.10 mph70%29.77 "Hg6 mi
6:00 PM86 °FPartly sunny.8 mph70%29.77 "HgN/A
5:30 PM86 °FPartly sunny.8 mph70%29.77 "HgN/A
5:00 PM88 °FPartly sunny.9 mph66%29.77 "HgN/A
4:30 PM88 °FPartly sunny.12 mph66%29.77 "HgN/A
4:00 PM88 °FPartly sunny.9 mph66%29.77 "HgN/A
3:30 PM90 °FPartly sunny.13 mph59%29.77 "HgN/A
3:00 PM88 °FPartly sunny.14 mph66%29.80 "HgN/A
2:30 PM90 °FPartly sunny.10 mph63%29.80 "HgN/A
2:00 PM90 °FPartly sunny.12 mph63%29.83 "HgN/A
1:30 PM90 °FPartly sunny.9 mph63%29.83 "HgN/A
1:00 PM86 °FPartly sunny.12 mph70%29.83 "Hg6 mi
12:30 PM88 °FPartly sunny.8 mph66%29.86 "Hg6 mi
12:00 PM86 °FSprinkles. Broken clouds.3 mph75%29.89 "Hg6 mi
11:30 AM88 °FBroken clouds.10 mph66%29.89 "Hg6 mi
11:00 AM88 °FBroken clouds.10 mph66%29.89 "Hg6 mi
10:30 AM86 °FBroken clouds.10 mph75%29.89 "Hg6 mi
10:00 AM86 °FPartly sunny.10 mph75%29.89 "Hg6 mi
9:30 AM86 °FPartly sunny.9 mph70%29.89 "Hg6 mi
9:00 AM84 °FPartly sunny.7 mph79%29.89 "Hg6 mi
8:30 AM84 °FPartly sunny.9 mph79%29.86 "Hg6 mi
8:00 AM84 °FPartly sunny.8 mph79%29.86 "Hg4 mi
7:30 AM82 °FPartly sunny.6 mph84%29.86 "Hg4 mi
7:00 AM82 °FPassing clouds.7 mph84%29.83 "Hg4 mi
6:30 AM82 °FPassing clouds.7 mph84%29.83 "Hg4 mi
6:00 AM82 °FPassing clouds.7 mph84%29.83 "Hg4 mi
5:30 AM82 °FPassing clouds.7 mph84%29.83 "Hg4 mi
5:00 AM82 °FPassing clouds.5 mph84%29.83 "Hg4 mi
4:30 AM82 °FPassing clouds.5 mph84%29.83 "Hg4 mi
4:00 AM82 °FPassing clouds.7 mph84%29.83 "Hg4 mi
Weather by CustomWeather, © 2015

See weather overviewHow to use our weather pages